Location: Sungai Bunut
(2.6333°N, 113.7333°E)
Time: 10:45:43
(UTC+00:00)

Transit 2A - Pass Details

Date: 05 December 2023
Orbit: 599 x 953 km, 66.7° (Epoch: 01 March)

Event Time Altitude Azimuth Distance (km) Brightness Sun altitude
Rises 18:50:47 0° 318° (NW) 2,949 - -47.5°
Reaches altitude 10° 18:53:18 10° 305° (NW) 2,088 - -47.0°
Maximum altitude 18:57:13 26° 249° (WSW) 1,379 - -46.1°
Drops below altitude 10° 19:01:28 10° 193° (SSW) 2,274 - -45.2°
Sets 19:04:20 0° 181° (S) 3,271 - -44.6°
